Hourly Weather Lezhe

Today, 1 October, Thursday

Time Temperature Precipitation Wind Pressure Humidity
00:00 +13°C° 0 mm 1 mps 734 mmHg 81%
01:00 +13°C° 0 mm 2 mps 734 mmHg 80%
02:00 +13°C° 0 mm 2 mps 734 mmHg 79%
03:00 +13°C° 0 mm 1 mps 734 mmHg 78%
04:00 +13°C° 0 mm 1 mps 733 mmHg 76%
05:00 +14°C° 0 mm 1 mps 733 mmHg 76%
06:00 +15°C° 0 mm 1 mps 733 mmHg 75%
07:00 +15°C° 0 mm 1 mps 733 mmHg 72%
08:00 +17°C° 0 mm 2 mps 733 mmHg 69%
09:00 +18°C° 0 mm 2 mps 733 mmHg 65%
10:00 +19°C° 0 mm 2 mps 733 mmHg 61%
11:00 +19°C° 0.1 mm 2 mps 733 mmHg 61%
12:00 +20°C° 0.1 mm 3 mps 733 mmHg 60%
13:00 +20°C° 0.1 mm 3 mps 733 mmHg 60%
14:00 +20°C° 0.1 mm 3 mps 732 mmHg 63%
15:00 +19°C° 0.1 mm 2 mps 732 mmHg 65%
16:00 +19°C° 0.1 mm 2 mps 732 mmHg 68%
17:00 +19°C° 0 mm 1 mps 732 mmHg 72%
18:00 +16°C° 0 mm 1 mps 733 mmHg 77%
19:00 +15°C° 0 mm 1 mps 733 mmHg 81%
20:00 +15°C° 0 mm 1 mps 733 mmHg 80%
21:00 +15°C° 0 mm 1 mps 733 mmHg 79%
22:00 +15°C° 0 mm 1 mps 733 mmHg 78%
23:00 +15°C° 0 mm 1 mps 734 mmHg 77%

Tomorrow, 2 October, Friday

Time Temperature Precipitation Wind Pressure Humidity
00:00 +15°C° 0 mm 1 mps 734 mmHg 75%
01:00 +15°C° 0 mm 1 mps 734 mmHg 74%
02:00 +15°C° 0 mm 2 mps 733 mmHg 74%
03:00 +15°C° 0 mm 2 mps 733 mmHg 74%
04:00 +14°C° 0 mm 2 mps 733 mmHg 75%
05:00 +15°C° 0 mm 2 mps 733 mmHg 74%
06:00 +16°C° 0 mm 2 mps 733 mmHg 73%
07:00 +16°C° 0 mm 2 mps 733 mmHg 71%
08:00 +20°C° 0 mm 1 mps 734 mmHg 65%
09:00 +22°C° 0 mm 1 mps 734 mmHg 58%
10:00 +24°C° 0 mm 1 mps 734 mmHg 51%
11:00 +24°C° 0 mm 1 mps 734 mmHg 50%
12:00 +25°C° 0 mm 1 mps 734 mmHg 49%
13:00 +26°C° 0 mm 2 mps 734 mmHg 48%
14:00 +25°C° 0 mm 2 mps 734 mmHg 52%
15:00 +24°C° 0 mm 1 mps 734 mmHg 56%
16:00 +24°C° 0 mm 1 mps 734 mmHg 60%
17:00 +22°C° 0.1 mm 1 mps 734 mmHg 65%
18:00 +21°C° 0.1 mm 1 mps 734 mmHg 71%
19:00 +19°C° 0.1 mm 1 mps 735 mmHg 76%
20:00 +19°C° 0 mm 1 mps 735 mmHg 76%
21:00 +19°C° 0 mm 1 mps 735 mmHg 76%
22:00 +19°C° 0 mm 1 mps 735 mmHg 76%
23:00 +19°C° 0 mm 1 mps 735 mmHg 77%

Day after tomorrow, 3 October, Saturday

Time Temperature Precipitation Wind Pressure Humidity
00:00 +19°C° 0 mm 1 mps 735 mmHg 77%
01:00 +19°C° 0 mm 1 mps 735 mmHg 78%
02:00 +18°C° 0 mm 2 mps 735 mmHg 78%
03:00 +18°C° 0 mm 2 mps 735 mmHg 78%
04:00 +17°C° 0 mm 2 mps 735 mmHg 78%
05:00 +18°C° 0 mm 2 mps 735 mmHg 76%
06:00 +19°C° 0 mm 2 mps 735 mmHg 75%
07:00 +19°C° 0 mm 2 mps 735 mmHg 73%
08:00 +23°C° 0 mm 1 mps 736 mmHg 66%
09:00 +25°C° 0 mm 1 mps 736 mmHg 58%
10:00 +27°C° 0 mm 1 mps 736 mmHg 50%
11:00 +28°C° 0 mm 1 mps 736 mmHg 47%
12:00 +29°C° 0 mm 1 mps 735 mmHg 43%
13:00 +30°C° 0 mm 1 mps 735 mmHg 40%
14:00 +29°C° 0 mm 2 mps 735 mmHg 44%
15:00 +28°C° 0 mm 2 mps 735 mmHg 49%
16:00 +27°C° 0 mm 3 mps 735 mmHg 54%
17:00 +26°C° 0 mm 2 mps 735 mmHg 59%
18:00 +24°C° 0 mm 2 mps 735 mmHg 65%
19:00 +21°C° 0 mm 2 mps 735 mmHg 70%
20:00 +21°C° 0 mm 2 mps 735 mmHg 67%
21:00 +21°C° 0 mm 2 mps 735 mmHg 63%
22:00 +22°C° 0 mm 3 mps 735 mmHg 60%
23:00 +21°C° 0 mm 3 mps 735 mmHg 59%

4 October, Sunday

Time Temperature Precipitation Wind Pressure Humidity
00:00 +21°C° 0 mm 3 mps 734 mmHg 58%
01:00 +21°C° 0 mm 3 mps 734 mmHg 57%
02:00 +21°C° 0 mm 3 mps 734 mmHg 57%
03:00 +21°C° 0 mm 3 mps 734 mmHg 57%
04:00 +21°C° 0 mm 3 mps 734 mmHg 56%
05:00 +21°C° 0 mm 2 mps 734 mmHg 59%
06:00 +23°C° 0 mm 2 mps 735 mmHg 63%
07:00 +23°C° 0 mm 2 mps 735 mmHg 66%
08:00 +25°C° 0 mm 1 mps 735 mmHg 60%
09:00 +27°C° 0 mm 1 mps 735 mmHg 55%
10:00 +28°C° 0 mm 1 mps 735 mmHg 50%
11:00 +29°C° 0 mm 2 mps 734 mmHg 48%
12:00 +30°C° 0 mm 2 mps 734 mmHg 45%
13:00 +30°C° 0 mm 3 mps 734 mmHg 43%
14:00 +29°C° 0.1 mm 3 mps 734 mmHg 50%
15:00 +28°C° 0.1 mm 3 mps 734 mmHg 57%
16:00 +27°C° 0.1 mm 3 mps 734 mmHg 65%
17:00 +26°C° 0.3 mm 3 mps 734 mmHg 69%
18:00 +25°C° 0.3 mm 2 mps 735 mmHg 73%
19:00 +23°C° 0.3 mm 2 mps 735 mmHg 77%
20:00 +23°C° 0.1 mm 2 mps 735 mmHg 77%
21:00 +23°C° 0.1 mm 2 mps 735 mmHg 77%
22:00 +22°C° 0.1 mm 1 mps 735 mmHg 76%
23:00 +23°C° 0.1 mm 2 mps 735 mmHg 76%

5 October, Monday

Time Temperature Precipitation Wind Pressure Humidity
00:00 +22°C° 0.1 mm 3 mps 735 mmHg 75%
01:00 +22°C° 0.1 mm 4 mps 735 mmHg 74%
02:00 +22°C° 0 mm 4 mps 735 mmHg 72%
03:00 +22°C° 0 mm 4 mps 735 mmHg 69%
04:00 +22°C° 0 mm 3 mps 734 mmHg 66%
05:00 +22°C° 0 mm 3 mps 734 mmHg 65%
06:00 +22°C° 0 mm 3 mps 734 mmHg 63%
07:00 +23°C° 0 mm 2 mps 734 mmHg 62%
08:00 +25°C° 0.3 mm 2 mps 734 mmHg 59%
09:00 +27°C° 0.3 mm 2 mps 734 mmHg 55%
10:00 +28°C° 0.3 mm 1 mps 734 mmHg 52%
11:00 +28°C° 0.2 mm 2 mps 734 mmHg 51%
12:00 +29°C° 0.2 mm 2 mps 734 mmHg 50%
13:00 +29°C° 0.2 mm 2 mps 733 mmHg 49%
14:00 +28°C° 0.9 mm 2 mps 733 mmHg 57%
15:00 +26°C° 0.9 mm 2 mps 733 mmHg 64%
16:00 +25°C° 0.9 mm 2 mps 733 mmHg 72%
17:00 +24°C° 2.4 mm 2 mps 734 mmHg 77%
18:00 +23°C° 2.4 mm 2 mps 734 mmHg 82%
19:00 +22°C° 2.4 mm 1 mps 734 mmHg 87%
20:00 +21°C° 3.9 mm 2 mps 734 mmHg 88%
21:00 +21°C° 3.9 mm 3 mps 735 mmHg 89%
22:00 +21°C° 3.9 mm 4 mps 735 mmHg 89%
23:00 +21°C° 3.4 mm 4 mps 735 mmHg 89%

6 October, Tuesday

Time Temperature Precipitation Wind Pressure Humidity
00:00 +20°C° 3.4 mm 3 mps 735 mmHg 89%
01:00 +20°C° 3.4 mm 3 mps 734 mmHg 88%
02:00 +20°C° 2.5 mm 4 mps 734 mmHg 88%
03:00 +20°C° 2.5 mm 4 mps 734 mmHg 88%
04:00 +19°C° 2.5 mm 5 mps 734 mmHg 87%
05:00 +19°C° 8.4 mm 4 mps 734 mmHg 89%
06:00 +18°C° 8.4 mm 4 mps 734 mmHg 91%
07:00 +17°C° 8.4 mm 3 mps 734 mmHg 93%
08:00 +17°C° 1.8 mm 3 mps 734 mmHg 92%
09:00 +17°C° 1.8 mm 3 mps 734 mmHg 91%
10:00 +17°C° 1.8 mm 3 mps 735 mmHg 90%
11:00 +18°C° 1 mm 2 mps 735 mmHg 85%
12:00 +19°C° 1 mm 2 mps 735 mmHg 80%
13:00 +22°C° 1 mm 1 mps 735 mmHg 75%
14:00 +21°C° 0.5 mm 1 mps 735 mmHg 75%
15:00 +21°C° 0.5 mm 1 mps 735 mmHg 75%
16:00 +21°C° 0.5 mm 1 mps 735 mmHg 75%
17:00 +20°C° 0.2 mm 1 mps 735 mmHg 77%
18:00 +19°C° 0.2 mm 1 mps 735 mmHg 80%
19:00 +18°C° 0.2 mm 1 mps 735 mmHg 83%
20:00 +18°C° 0.1 mm 1 mps 735 mmHg 82%
21:00 +16°C° 0.1 mm 1 mps 735 mmHg 82%
22:00 +16°C° 0.1 mm 1 mps 735 mmHg 81%
23:00 +16°C° 0 mm 1 mps 735 mmHg 81%
Show more

We Need Your Consent

Meteoprog and our Service Providers may store and access personal data such as cookies, device identifiers or other similar technologies on your device and process such data to personalise content and ads, as well as provide social media features and to analyse the traffic.

  • Store and/or access information on your device

    Cookies, device identifiers or other information can be stored or accessed on your device for the purposes indicated above.

  • Personalised ads and content, ad and content measurement, audience insights, and products development

    Ads and content can be personalised based on a profile. More data can be added to better personalise ads and content. Ad and content performance can be measured. Insights about the audience who saw the ads and content can be derived. Such data can be used to develop or improve user’s experience, systems and software.

By clicking ‘I Agree’ you will allow the use of indicated cookies, device identifiers, web beacons or other similar technologies. Your settings can be changed in the browser on your device.

For certain purposes, legitimate interests may be relied on, rather than consent. You can read more about this in our Privacy and Cookie Policy.